Regional Weather Roundup
Issued by NWS Pendleton, OR

Home | Current Version | Previous Version | Text Only | Print | Product List | Glossary On
Versions: 1 2 3 4 5 6 7 8 9 10 11 12 13 14 15 16 17 18 19 20 21 22 23 24 25 26 27 28 29 30 31 32 33 34 35 36 37 38 39 40 41 42 43 44 45 46 47 48 49 50
000
ASUS46 KPDT 061425
RWRPDT
PENDLETON REGIONAL WEATHER ROUNDUP
NATIONAL WEATHER SERVICE PENDLETON OREGON
600 AM PST FRI MAR 6 2015

NOTE: FAIR INDICATES FEW OR NO CLOUDS BELOW 12,000 FEET WITH NO
SIGNIFICANT WEATHER AND/OR OBSTRUCTIONS TO VISIBILITY.

# INDICATES UNOFFICIAL STATION AND DATA

WAZ520-061510-
EAST SLOPES OF WASHINGTON CASCADES

CITY            SKY/WX      TMP DP  RH  WIND    PRES   REMARKS
#BUMPING DAM    N/A         28  N/A N/A NE2     N/A
#CLE ELUM HS    N/A         32  27  82  CALM    30.30R
#CLE ELUM LAKE  N/A         38  30  73  CALM    30.35R
#CLIFFDEL 2NW   N/A         29  24  81  S2      N/A
#GLENWOOD       N/A         26  25  96  CALM    30.42R
#MANASTASH CYN  N/A         34  27  75  CALM    30.29R
#NELSON         N/A         29  26  88  CALM    30.42R
#NELSON 3SW     N/A         34  31  89  CALM    30.59R
#NILE           N/A         32  27  82  W2      29.67S
#RONALD 2NW     N/A         37  23  56  CALM    30.18S
#SNOWDEN        N/A         34  21  58  CALM    N/A
#TEANAWAY 4NE   N/A         30  26  85  N1      N/A
#TROUT LAKE 1NE N/A         31  28  88  N2      30.40R
$$

WAZ521-061510-
SIMCOE HIGHLANDS

CITY            SKY/WX      TMP DP  RH  WIND    PRES   REMARKS
#BICKLETON HS   N/A         46  16  30  W6      N/A
#CENTERVILLE 4W N/A         37  30  75  N3      30.09R
#CENTERVILLE 1SWN/A         29  26  88  CALM    30.37R
#GOLDENDALE     N/A         32  27  82  E2      N/A
#GOLDENDALE 1NE N/A         30  19  63  N3      N/A
#GOLDENDALE 5WNWN/A         N/A N/A N/A SW10    30.34S
#GOODNOE HILLS  N/A         41  31  67  NE2     N/A
#LYLE 6NE       N/A         37  31  79  N1      30.35S
$$

WAZ026-061510-
KITTITAS VALLEY

CITY            SKY/WX      TMP DP  RH  WIND    PRES   REMARKS
#ELLENSBURG CWU N/A         32  27  82  CALM    30.34R
#ELLENSBURG 3NE N/A         32  28  85  CALM    30.35R
#ELLENSBURG 1E  N/A         31  26  81  CALM    N/A
#KITTITAS 4N    N/A         35  27  72  E2      28.65R
#KITTITAS 3S    N/A         27  25  92  CALM    30.40R
#THORP 6N       N/A         35  29  78  N5      30.39S
$$

WAZ027-061510-
YAKIMA VALLEY

CITY            SKY/WX      TMP DP  RH  WIND    PRES   REMARKS
SUNNYSIDE AP    CLOUDY      28  25  88  CALM    30.38R
YAKIMA AIRPORT  MOCLDY      32  26  78  CALM    30.38R
YAKIMA-VAGABOND MOCLDY      35  28  75  E1      30.36R
#DONALD 2NE     N/A         39  25  57  S2      29.21R
#MABTON         N/A         32  28  85  CALM    30.38R
#NACHES 2SW     N/A         41  29  62  W6      30.35R
#OUTLOOK DOT    N/A         N/A N/A N/A CALM    N/A
#SELAH 8E       N/A         35  26  69  S2      N/A
#TERRACE HTS    N/A         31  27  85  CALM    30.37R
#WAPATO 4NE     N/A         39  25  57  S2      29.21R
#WEST VALLEY    N/A         33  28  82  CALM    30.38R
#W YAKIMA       N/A         37  29  72  CALM    30.40R
#WHITE SWAN 5E  N/A         29  27  92  CALM    30.41R
#WILEY CITY 3W  N/A         32  25  75  CALM    30.38R
$$

WAZ028-061510-
LOWER COLUMBIA BASIN...WASHINGTON

CITY            SKY/WX      TMP DP  RH  WIND    PRES   REMARKS
HANFORD         CLOUDY      34  26  72  SW2     30.35S
PASCO           MOCLDY      27  25  92  CALM    30.39S
PROSSER AWOS    N/A         30  30  100 SW1     30.41R
RICHLAND AWOS   MOCLDY      28  28  100 CALM    30.39S
#BASIN CITY 5SW N/A         30  26  85  NE6     30.38R
#CONNELL 5N     N/A         32  26  78  CALM    30.40R
#CONNELL 5NW    N/A         32  27  82  E1      30.36R
#ELTOPIA        N/A         31  26  81  CALM    30.36R
#ELTOPIA 6NW    N/A         34  26  72  NE2     29.32R
#KAHLOTUS       N/A         28  23  81  S10     30.40S
#KENNEWICK 3S   N/A         37  29  72  CALM    30.39S
#PASCO-BROADMOORN/A         30  24  78  CALM    30.32S
#PATERSON       N/A         33  28  82  CALM    30.39R
#PROSSER        N/A         36  27  69  CALM    30.39R
#SAGEMOOR 2W    N/A         30  26  85  S1      30.24S
#TOUCHET 2S     N/A         25  22  88  CALM    30.39R
#WEST PASCO     N/A         30  23  75  CALM    30.40S
$$

WAZ029-061510-
FOOTHILLS OF THE BLUES...WASHINGTON

CITY            SKY/WX      TMP DP  RH  WIND    PRES   REMARKS
WALLA WALLA AP  CLEAR       38  25  59  E5      30.36R
#DAYTON SCHOOL  N/A         34  17  49  N2      30.36S
#LOWDEN 2SE     N/A         25  23  92  CALM    30.35R
#PLEASANT VIEW 1N/A         37  25  61  CALM    30.43R
#PRESCOTT       N/A         32  27  82  CALM    30.39R
#SUDBURY        N/A         31  N/A N/A CALM    N/A
#WHITMAN COLLEGEN/A         46  28  49  E1      30.42S
#WAITSBURG 5S   N/A         46  25  43  CALM    30.47R
#WAITSBURG 8N   N/A         30  10  42  N1      30.24S
#WALLA WALLA 5E N/A         39  28  64  NE6     N/A
#WALLA WALLA U  N/A         34  28  78  CALM    30.39R
#WHITMAN MISSIONN/A         28  25  88  CALM    30.41R
$$

WAZ030-061510-
BLUE MOUNTAINS...WASHINGTON

CITY            SKY/WX      TMP DP  RH  WIND    PRES   REMARKS
#DIXIE 5SE      N/A         48  16  27  S6      30.28S
#SKI BLUEWOOD   N/A         31  20  63  SW1     30.35R
$$

ORZ009-041-WAZ024-061510-
COLUMBIA RIVER GORGE

CITY            SKY/WX      TMP DP  RH  WIND    PRES   REMARKS
HOOD RIVER AP   CLOUDY      36  32  85  S5      30.40R
THE DALLES AP   MOCLDY      34  30  85  CALM    30.40R
#ARLINGTON AIRPON/A         36  33  89  W3      30.00S
#ARLINGTON HS   N/A         34  30  85  CALM    30.34R
#CELILO DOT     N/A         37  31  79  CALM    N/A
#MOSIER 1S      N/A         37  29  72  CALM    30.35S
#MURDOCK        N/A         38  35  89  CALM    30.43R
#RUFUS DOT      N/A         37  32  82  CALM    N/A

$$

ORZ510-061510-
NORTH CENTRAL OREGON

CITY            SKY/WX      TMP DP  RH  WIND    PRES   REMARKS
#CHENOWITH 1W   N/A         40  31  70  NW6     N/A
#COW CYN RST AREN/A         38  24  57  W3      N/A
#DUFUR 9E       N/A         48  28  46  E1      30.41R
#GRASS VALLEY 1SN/A         38  29  70  S1      30.42R
#KENT DOT       N/A         38  22  52  SE7     N/A
#MAUPIN SCHOOL  N/A         34  28  78  CALM    30.40R
#MORO SCHOOL    N/A         34  32  92  SW1     30.36R
#SHANIKO 5WSW   N/A         39  19  44  S10     N/A
#SHANIKO 4NW    N/A         42  25  51  S5      30.35R
#TYGH VALLEY 2NEN/A         33  28  82  CALM    30.41R
#WAPANITIA AIRPON/A         32  27  82  CALM    30.41R
#WASCO DOT      N/A         30  28  92  E2      N/A
#WASCO AIRPORT  N/A         39  28  64  CALM    N/A
#WASCO 5NE      N/A         34  30  85  CALM    30.39R
$$

ORZ511-061510-
CENTRAL OREGON

CITY            SKY/WX      TMP DP  RH  WIND    PRES   REMARKS
BEND AIRPORT    PTCLDY      27  21  78  S6      30.38R
MADRAS AIRPORT  MOCLDY      32  27  82  CALM    30.39R
PRINEVILLE AP   PTCLDY      25  21  84  CALM    30.38S
REDMOND AIRPORT PTCLDY      30  21  69  CALM    30.37S
#BEND 6E        N/A         32  20  61  CALM    30.40R
#BEND 1SW       N/A         32  26  78  SW1     N/A
#BEND-AWBREY    N/A         35  26  69  SW10    30.38S
#BEND-KIM LN    N/A         34  26  72  SW7     30.34S
#CROOKED RVR RANN/A         32  24  72  SE2     30.40R
#CULVER         N/A         31  23  72  CALM    30.33S
#LAKE BILLY CHINN/A         35  20  54  S2      30.45S
#POWELL BUTTE   N/A         33  22  63  SW2     29.97S
#PRINEVILLE 3N  N/A         27  22  81  E1      30.39S
#WARM SPRINGS   N/A         29  26  88  CALM    30.36R

$$


ORZ509-061510-
EAST SLOPES OF OREGON CASCADES

CITY            SKY/WX      TMP DP  RH  WIND    PRES   REMARKS
#BLUE BOX PASS  N/A         43  -10 10  CALM    N/A
#CAMP SHERMAN   N/A         23  19  84  CALM    30.48R
#LA PINE DOT    N/A         20  16  84  CALM    N/A
#LA PINE 4NW    N/A         18  13  80  CALM    30.52R
#LAVA BUTTE DOT N/A         27  22  81  CALM    N/A
#MT BACHELOR-MIDN/A         36  -11 12  SW8     N/A
#SISTERS AIRPOR N/A         22  20  92  CALM    30.17S
#SISTERS ODOT   N/A         23  N/A N/A CALM    N/A
#SISTERS 1NW    N/A         23  20  88  N3      N/A
#SISTERS 3N     N/A         23  11  59  CALM    30.37S
#SUNRIVER       N/A         27  21  78  S2      30.36R
#TUMALO 3W      N/A         41  20  43  SW6     30.24S
#WANOGA BUTTE D N/A         39  13  34  W3      N/A

$$

ORZ044-061510-
LOWER COLUMBIA BASIN...OREGON

CITY            SKY/WX      TMP DP  RH  WIND    PRES   REMARKS
HERMISTON       PTCLDY      27  24  88  E3      30.37S
#BOARDMAN 8SW   N/A         33  30  89  CALM    30.40R
#IONE SCHOOL    N/A         35  21  56  CALM    30.35R
#IRRIGON 4NW    N/A         27  24  88  SE3     N/A
#UMATILLA SCHOOLN/A         26  26  100 CALM    30.44F
#UMATILLA       N/A         33  26  75  CALM    30.36S
$$

ORZ507-061510-
NORTHERN FOOTHILLS OF THE BLUES

CITY            SKY/WX      TMP DP  RH  WIND    PRES   REMARKS
PENDLETON AIRPT PTCLDY      35  25  66  E10     30.35S
#ADAMS 3WNW     N/A         32  25  75  N2      30.41S
#ATHENA         N/A         43  25  49  S1      30.40S
#HELIX SCHOOL   N/A         27  23  85  CALM    30.41R
#HELIX 3N       N/A         40  26  57  SE9     30.30R
#HOLDMAN 6E     N/A         38  26  62  NW1     30.19S
#M-F FERNDALE   N/A         31  24  75  CALM    30.34S
#M-F GROVE ELEM N/A         44  23  43  SW1     30.33R
#M-FREEWATER 5SEN/A         44  26  49  E9      30.34S
#PENDLETON DNTN N/A         29  18  63  CALM    30.37S
#PDT AQUATIC CTRN/A         30  16  55  CALM    30.34S
#PENDLETON 5NE  N/A         32  26  78  CALM    30.31R
#PDT SUNRIDGE   N/A         26  23  88  CALM    30.38S
#PENDLETON 7NW  N/A         33  25  72  CALM    29.88R
#PILOT ROCK     N/A         43  19  38  SE8     30.36S
#TUTUILLA       N/A         26  22  85  CALM    30.39F
#UMAPINE 2E     N/A         30  25  81  CALM    30.34R
#WESTON SCHOOL  N/A         50  16  25  SW7     30.33S

$$

ORZ508-061510-
SOUTHERN FOOTHILLS OF THE BLUES

CITY            SKY/WX      TMP DP  RH  WIND    PRES   REMARKS
LEXINGTON       PTCLDY      41  27  57  SE9     30.37R
#AJAX           N/A         43  21  41  SE6     30.27R
#CONDON SCHOOL  N/A         39  25  57  CALM    30.29R
#CONDON 5W      N/A         42  23  46  SW7     30.32R
#FOSSIL SCHOOL  N/A         36  26  67  CALM    30.32R
#HEPPNER EOC    N/A         42  25  51  E10     30.33R
#HEPPNER 4NE    N/A         47  21  35  S1      30.36R
#LEXINGTON 2SE  N/A         40  26  57  SE5     30.35R
#MIKKALO        N/A         40  27  59  CALM    30.35R
#OLEX 4N        N/A         37  29  72  SW5     30.35R
#RUGGS 5NE      N/A         39  21  48  N2      30.49S
#RUGGS 2SW      N/A         45  23  41  SW14    30.39R WCI 39

$$

ORZ502-503-061510-
BLUE MOUNTAINS

CITY            SKY/WX      TMP DP  RH  WIND    PRES   REMARKS
MEACHAM         CLEAR       21  18  88  CALM    30.37S
#BATTLE MTN DOT N/A         30  27  88  S6      N/A
#HEPPNER 15SE   N/A         34  23  64  CALM    30.29R
#LADD CYN SMT   N/A         28  18  66  SE9     N/A
#LADD CREEK ODOTN/A         28  23  81  SW6     N/A
#LONG CREEK HS  N/A         31  26  81  CALM    30.35R
#N POWDER DOT   N/A         21  20  96  CALM    N/A
#PIKES PEAK     N/A         48  16  27  SW14    27.99S WCI 42
#TROY SCHOOL    N/A         27  24  88  CALM    30.36R
#UKIAH          N/A         21  19  92  CALM    30.57R
#WESTON 4E      N/A         42  20  41  SE6     30.33R
$$

ORZ505-061510-
JOHN DAY BASIN

CITY            SKY/WX      TMP DP  RH  WIND    PRES   REMARKS
JOHN DAY        PTCLDY      35  22  59  SE9     30.41R
#JOHN DAY KJDY  N/A         27  27  100 CALM    30.40F
#DAYVILLE SCHOOLN/A         28  23  81  CALM    30.39R
#MONUMENT HS    N/A         25  21  84  CALM    30.42R
#MT. VERNON 5SE N/A         33  21  61  CALM    30.35S
#SPRAY SCHOOL   N/A         26  N/A N/A CALM    N/A
#WINLOCK        N/A         32  23  69  CALM    30.44R
$$

ORZ506-061510-
OCHOCO AND JOHN DAY HIGHLANDS

CITY            SKY/WX      TMP DP  RH  WIND    PRES   REMARKS
#BUCK CREEK DOT N/A         39  39  100 CALM    N/A
#HORSE RIDGE DO N/A         17  14  88  CALM    N/A
#KEYES SMT DOT  N/A         33  21  61  CALM    N/A
#PAULINA SCHOOL N/A         24  21  88  CALM    30.34R
#PRAIRIE CITY   N/A         21  17  84  CALM    30.68R
#SENECA         N/A         18  N/A N/A CALM    N/A
#SENECA 9NW     N/A         19  17  92  CALM    30.54R
$$

ORZ049-061510-
GRANDE RONDE VALLEY

CITY            SKY/WX      TMP DP  RH  WIND    PRES   REMARKS
LA GRANDE       CLEAR       25  14  62  CALM    30.41R
#COVE           N/A         26  21  81  CALM    30.40R
#COVE SCHOOL    N/A         25  19  78  E1      30.36R
#ELGIN 3N       N/A         21  12  68  CALM    30.37R
#ELGIN 1E       N/A         24  19  81  CALM    N/A
#IMBLER SCHOOL  N/A         25  20  81  CALM    30.35R
#ISLAND CITY 4N N/A         36  35  96  CALM    30.38R
#LADD CYN DOT   N/A         32  20  61  SE2     N/A
#UNION 1S       N/A         29  21  72  CALM    30.38R
$$

ORZ050-061510-
WALLOWA COUNTY

CITY            SKY/WX      TMP DP  RH  WIND    PRES   REMARKS
JOSEPH AIRPORT  CLEAR       27  19  71  CALM    30.39R
#ENTERPRISE HS  N/A         23  19  84  CALM    30.37R
#IMNAHA SCHOOL  N/A         31  24  75  S3      30.41R
#IMNAHA 10S     N/A         34  20  56  SW5     30.37R
#JOSEPH 3N      N/A         20  13  74  CALM    30.36S
#JOSEPH 3W      N/A         34  16  47  SW2     30.16S
#LOSTINE        N/A         20  17  88  CALM    30.31R
#MT HOWARD 8000 N/A         35   9  33  W1      30.37S
#PROMISE 1S     N/A         31  21  66  CALM    30.55R
#SHEEP RDG 7000 N/A         38  11  32  CALM    30.40S
#WALLOWA SCHOOL N/A         19  17  92  CALM    31.52R



$$



USA.gov is the U.S. government's official web portal to all federal, state and local government web resources and services.